Theta_e
318 319 318 322 325 325 325 326 321 324 322 313 314 315 318 322 322 323 322 322 322 321 319 319 319 319 320 321 321 320 320 319 321 317 319 331 328 320 326 329 325 335 336 337 343 335 334 334 336 340 341 342 340 340 340 340 339 339 339 337 337 336 336 336 337 337 338 337 338 338 337 337 337 338 338 338 338 337 338 337 337 337 337 339 340 340 341 340 340 339 338 337 336 335 335 334 332
323 323 322 324 325 325 325 324 318 317 316 311 314 315 317 322 321 322 321 321 321 321 318 319 319 319 319 319 319 320 321 320 321 319 323 328 325 323 321 322 323 333 336 337 343 337 335 336 336 340 340 341 340 340 341 340 340 340 338 338 337 336 337 337 337 337 338 337 337 337 337 338 338 339 339 339 339 337 337 337 337 337 338 339 340 340 340 339 338 338 337 336 335 334 334 333 331
324 324 324 325 325 324 323 324 318 312 312 310 312 318 319 320 321 321 320 320 320 320 318 319 319 319 319 319 320 320 321 320 321 318 323 326 326 331 324 319 321 331 337 337 343 339 338 338 337 339 340 340 340 340 340 340 340 340 338 338 337 337 337 337 337 337 338 338 337 338 338 339 339 339 339 339 338 337 337 337 336 337 339 339 340 339 338 338 337 336 336 335 334 334 334 333 331
323 324 324 325 323 324 323 323 320 313 311 309 311 318 320 320 321 319 319 321 320 320 318 320 320 320 319 320 321 320 321 319 321 320 322 329 328 334 329 321 319 328 338 337 342 341 340 340 337 338 340 341 341 340 340 340 340 339 338 337 337 337 338 337 338 338 338 338 338 338 339 340 339 339 339 339 338 337 337 337 337 338 338 339 338 337 337 336 336 335 335 334 333 333 333 332 331
325 325 323 324 323 324 323 320 320 314 312 312 312 317 320 319 319 319 320 320 320 320 318 320 320 320 320 319 320 319 320 319 322 320 321 330 326 329 329 322 320 328 338 338 340 342 342 341 338 338 339 341 341 341 340 340 340 339 339 338 337 336 337 337 337 337 337 338 339 339 339 339 339 339 339 338 337 337 337 337 337 338 338 338 337 336 335 334 334 334 333 332 332 333 332 332 331
327 324 322 323 323 322 321 317 317 315 317 318 315 317 320 318 319 320 320 320 319 320 318 320 320 320 320 319 320 319 321 319 321 321 323 330 323 325 328 324 324 329 337 337 338 342 342 341 340 338 338 340 340 340 340 340 340 340 339 339 339 336 336 337 337 338 338 339 339 339 339 339 339 338 338 337 336 335 336 337 336 336 336 337 336 335 334 333 333 332 331 331 331 331 330 329 327
326 324 322 320 322 321 318 316 315 315 319 320 317 318 319 317 319 319 320 320 319 319 318 319 319 319 320 319 320 319 322 319 323 325 323 326 322 323 328 328 329 331 336 336 338 341 342 341 340 338 338 339 340 340 340 340 340 340 339 339 339 337 336 336 337 339 340 340 340 339 339 339 339 338 337 336 335 334 334 334 335 335 335 335 335 334 333 331 331 330 329 329 329 327 326 323 316
325 325 322 321 323 322 318 316 316 318 319 319 318 318 318 318 319 320 320 320 320 320 319 319 318 318 319 319 319 320 320 318 320 323 320 319 320 321 327 331 332 333 336 335 338 340 340 340 338 337 337 339 339 340 339 339 339 339 338 338 338 337 336 337 338 339 340 340 340 339 339 338 338 337 336 335 334 333 332 331 332 334 333 334 333 332 330 329 329 328 328 327 325 321 317 311 305
323 323 323 322 323 321 318 317 317 319 320 319 319 318 318 319 319 320 320 320 321 320 320 319 318 318 319 319 319 321 321 319 317 317 316 316 319 319 323 332 333 333 336 336 337 340 339 339 336 334 336 338 337 338 338 338 338 338 337 337 337 337 336 337 339 340 340 340 340 339 338 338 337 336 335 334 333 331 330 329 330 332 332 332 331 329 328 328 327 327 327 324 319 312 307 302 300
322 321 323 323 320 317 314 315 318 319 320 319 318 318 318 319 319 319 319 320 320 320 319 318 318 318 319 319 319 324 322 318 316 315 316 314 319 321 323 330 334 336 336 336 337 339 338 337 334 331 334 336 335 335 335 335 336 337 337 337 337 336 337 338 339 339 339 339 339 339 338 336 335 335 333 332 331 329 328 328 329 330 330 330 329 328 327 327 327 326 324 319 311 305 301 300 299
323 320 321 321 317 313 311 314 316 319 319 319 319 318 318 319 319 319 320 320 320 320 319 317 318 318 319 319 320 325 321 317 318 320 320 315 318 324 328 331 333 336 336 337 337 338 338 335 331 331 334 334 333 334 333 334 335 336 337 336 337 337 337 338 338 339 338 338 338 338 337 335 334 333 331 330 329 328 327 327 327 328 328 327 327 327 326 326 326 324 321 313 305 300 299 299 299
324 322 321 317 315 313 314 315 315 318 319 319 320 319 318 318 318 319 319 318 319 318 318 318 318 318 318 318 320 324 320 318 320 322 320 316 321 324 329 333 332 335 337 336 336 336 337 334 331 333 335 334 334 334 333 334 335 335 336 337 337 337 338 338 338 338 338 338 338 337 336 334 334 333 330 328 328 327 326 326 326 326 326 326 326 325 325 326 324 321 315 306 300 299 299 299 299
323 322 321 317 318 317 315 316 317 319 319 319 319 318 318 317 318 318 317 317 317 317 318 319 318 318 317 317 318 320 320 320 319 319 317 318 326 327 327 333 333 335 336 335 335 335 336 336 335 336 336 335 335 336 335 334 334 333 335 337 337 337 338 338 338 338 338 338 337 336 335 333 332 331 329 328 327 327 326 326 325 325 325 325 325 325 325 324 322 317 308 301 299 299 299 299 299
322 322 321 318 320 318 316 316 317 318 317 319 318 317 317 317 318 317 317 316 317 318 318 318 317 317 317 318 318 319 323 320 317 315 315 318 326 328 327 332 333 334 335 334 335 336 337 337 336 336 336 336 336 336 335 334 334 333 335 337 337 337 337 337 337 337 336 336 336 335 334 331 330 330 329 328 326 326 325 325 325 325 325 325 325 324 325 323 319 312 303 299 299 299 299 299 299
321 321 321 319 319 319 318 318 318 316 316 318 318 317 317 316 318 316 317 316 317 318 317 317 317 317 317 318 318 321 322 318 316 314 315 317 322 326 327 330 332 333 334 335 335 335 336 336 336 335 335 336 336 336 336 335 334 334 335 336 336 336 336 337 336 335 334 333 334 334 332 329 328 329 328 328 326 325 325 324 324 324 324 325 324 324 324 322 315 308 301 299 299 298 298 298 298
321 321 321 320 318 317 320 320 319 317 317 319 317 316 317 317 317 316 317 316 317 317 317 317 316 317 317 317 318 321 319 316 315 316 318 320 322 325 326 327 330 331 332 334 334 335 335 336 336 335 335 335 335 335 335 335 335 334 334 335 335 335 335 335 334 333 332 331 332 332 330 328 328 328 327 327 325 323 323 323 322 322 324 324 324 323 323 320 313 305 300 299 298 298 299 298 298
320 321 321 319 317 317 320 321 318 317 317 318 317 317 316 316 317 316 316 315 315 316 317 317 317 317 316 317 319 320 318 316 316 319 323 325 325 326 327 327 329 330 331 332 333 334 335 335 335 335 335 334 334 334 334 334 334 334 333 334 335 334 334 333 332 332 331 330 331 331 329 328 328 328 327 327 325 322 321 321 320 320 322 323 323 322 322 319 310 303 299 298 298 298 298 298 298
320 321 320 318 318 319 320 320 318 318 318 317 317 317 317 316 317 316 315 315 316 316 316 317 317 318 317 317 318 319 318 317 319 322 325 327 327 327 328 328 328 330 331 332 332 333 334 335 335 335 334 334 334 333 333 333 333 334 333 334 334 333 332 332 331 331 331 330 331 330 329 328 328 328 326 326 325 322 320 320 318 318 321 322 321 321 321 316 306 300 298 298 298 298 298 298 298
320 321 320 319 319 319 320 319 317 318 318 317 317 317 317 317 316 316 316 316 316 316 317 317 317 317 318 318 318 319 319 320 322 322 322 325 326 326 327 328 329 329 331 332 331 332 333 334 334 334 334 334 334 333 333 333 332 333 333 333 333 331 330 331 331 331 331 330 330 329 328 328 328 327 326 326 324 322 320 319 316 316 321 322 321 321 319 312 303 299 298 298 298 297 297 297 298
319 320 320 320 320 320 320 319 318 317 317 317 317 317 317 317 316 317 316 316 316 316 317 317 317 317 318 318 318 318 319 320 321 321 321 322 324 324 325 327 329 329 330 331 331 331 333 334 334 334 334 334 334 333 333 332 332 332 332 332 332 331 330 330 331 331 330 330 329 329 328 328 327 327 326 325 323 322 321 318 314 315 321 322 320 320 318 310 302 298 297 298 297 297 297 297 298
320 321 320 319 319 320 320 318 318 318 317 317 317 317 317 316 317 316 316 316 316 316 317 317 317 317 317 317 318 318 318 319 319 321 321 321 322 323 323 324 327 328 328 329 330 331 331 332 333 333 333 334 334 333 332 332 332 332 332 331 332 331 331 330 330 330 330 329 329 328 328 327 327 327 326 324 322 322 322 319 314 316 321 321 319 319 316 309 302 298 297 297 296 297 297 297 298
320 321 319 318 318 319 319 318 318 318 317 316 317 316 317 317 317 316 316 316 316 316 316 316 316 316 317 316 317 318 318 319 318 319 320 321 321 321 322 322 323 326 328 329 330 331 330 330 332 333 333 333 334 333 332 332 332 331 331 331 331 332 331 330 330 330 330 329 329 328 327 327 326 326 324 323 322 321 321 319 316 318 321 320 318 317 316 310 303 299 297 296 296 297 297 297 298
319 318 317 317 318 318 318 318 318 317 317 316 317 317 317 317 317 317 316 316 317 317 316 316 316 316 317 317 317 317 317 318 318 318 319 320 321 320 320 321 321 323 327 329 329 330 330 329 331 331 332 333 333 333 332 332 332 331 331 331 331 332 331 330 330 330 330 330 329 327 327 326 326 325 323 322 321 320 320 320 319 319 320 320 317 316 317 312 305 300 297 296 297 297 297 298 298
318 316 316 317 318 318 318 317 317 317 317 316 316 316 317 316 317 316 316 316 317 317 318 317 317 318 317 316 316 316 317 317 317 317 318 318 319 320 320 320 320 320 325 328 328 328 329 330 329 330 330 331 332 332 332 332 331 331 331 331 331 331 330 330 330 329 329 329 328 327 327 326 325 324 323 321 320 319 320 320 320 320 320 320 317 316 317 313 307 301 297 296 297 297 298 297 298
318 317 316 316 317 318 317 317 316 317 317 316 316 316 316 316 316 316 315 316 316 316 316 316 317 317 316 316 315 316 316 316 317 317 317 318 318 319 320 320 321 320 321 325 326 326 327 328 328 329 329 329 330 331 331 331 331 331 331 330 330 330 330 330 330 329 329 328 327 327 326 325 325 324 322 320 319 319 319 320 320 320 320 320 317 316 315 312 306 300 297 296 297 297 297 297 297
316 317 316 316 317 316 316 315 316 316 316 316 315 315 315 315 315 315 315 315 316 315 316 316 315 316 315 315 315 315 315 315 316 317 317 317 318 319 319 320 321 321 320 321 324 325 326 326 327 327 327 328 329 330 330 330 330 330 330 330 330 329 329 329 329 328 328 327 327 326 326 325 324 323 321 320 319 319 319 319 320 320 319 318 316 314 311 308 303 299 297 296 296 296 297 297 297
315 315 315 315 314 314 314 314 315 315 315 315 315 314 315 315 314 314 315 315 316 315 315 315 314 315 314 315 315 315 315 315 316 316 316 316 317 319 319 320 320 320 320 320 321 323 324 324 326 325 325 326 328 329 329 329 329 329 330 330 329 329 328 329 329 329 328 327 326 325 325 325 324 323 321 319 319 318 317 318 318 318 317 315 313 311 308 305 301 298 297 296 296 296 297 297 296
314 314 313 313 314 314 314 314 314 315 314 314 314 314 314 314 314 314 315 315 315 315 315 315 314 314 314 315 315 315 315 316 316 316 316 316 316 317 318 319 319 318 318 318 318 320 323 323 324 325 325 325 326 328 327 327 329 329 329 329 329 329 328 328 329 328 328 327 325 325 324 324 324 322 320 318 317 317 316 316 316 315 314 312 311 308 305 303 300 298 297 296 296 296 297 297 296
313 313 312 313 314 314 315 315 315 315 314 313 312 312 313 314 314 315 315 315 315 315 315 314 314 314 314 314 315 315 315 315 316 316 316 316 316 315 316 316 317 318 317 317 316 318 321 323 324 324 325 325 325 326 327 327 328 328 328 329 329 328 328 328 328 328 327 326 325 324 323 323 323 322 319 317 316 315 315 314 313 312 311 309 308 306 304 301 299 298 297 296 297 297 297 297 296
312 313 313 314 314 315 316 316 314 314 313 312 312 311 313 315 315 315 316 315 315 314 314 313 314 314 314 314 314 314 315 315 315 316 316 315 315 315 315 314 314 315 317 318 318 318 320 321 322 323 324 325 324 324 326 327 327 328 328 328 328 328 328 327 327 327 326 325 324 323 322 321 322 321 319 317 315 314 313 312 311 310 309 308 306 305 303 301 299 297 296 296 296 297 297 296 296
313 313 314 314 314 314 316 315 313 313 312 311 312 311 312 315 315 315 315 314 314 313 313 314 313 314 314 314 314 314 315 315 315 315 315 315 315 315 315 314 314 313 314 316 318 319 318 319 320 321 321 323 323 324 325 326 327 327 327 327 327 327 327 327 326 326 326 325 323 322 321 321 321 321 319 317 314 313 311 310 309 308 307 307 305 303 302 300 298 297 296 296 296 296 297 296 295
314 314 314 315 314 315 318 316 313 314 312 311 312 312 313 316 315 315 315 314 314 313 313 313 313 314 314 314 314 315 314 315 316 315 315 315 314 314 314 314 313 313 313 313 316 317 318 318 318 318 319 320 322 323 324 325 326 326 326 326 326 327 326 326 326 325 325 324 323 321 321 320 320 321 319 317 315 312 311 309 308 307 306 305 304 303 301 300 298 296 295 295 295 296 297 295 295
316 315 314 315 315 315 317 317 316 315 313 311 312 312 313 314 314 314 314 314 314 313 313 313 314 314 314 314 314 314 315 315 316 315 315 314 314 313 313 313 313 313 312 312 314 315 316 317 317 317 318 319 321 323 323 324 325 325 326 326 326 326 326 325 325 325 325 323 322 321 320 320 320 320 319 317 315 313 311 308 307 306 305 304 303 302 301 300 298 297 295 295 296 296 297 296 296
316 317 316 316 317 316 316 317 317 314 313 313 312 312 312 313 314 314 314 314 313 313 314 313 314 314 314 314 314 314 314 314 315 315 315 314 313 313 312 312 312 312 312 312 312 313 314 315 316 317 317 318 320 321 322 323 323 324 324 324 324 325 325 324 324 324 324 322 321 320 319 319 319 320 319 318 316 313 310 308 306 305 304 303 303 302 301 299 298 297 295 295 296 297 297 296 297
316 317 316 316 317 316 315 317 317 315 314 314 314 313 314 314 314 314 314 314 314 313 314 314 314 314 315 315 314 315 315 315 315 315 314 313 313 312 312 311 312 311 311 310 311 311 312 313 315 316 315 316 318 319 321 322 322 322 322 323 323 323 323 323 323 322 322 321 320 319 319 318 318 319 319 318 316 313 310 308 306 304 303 302 302 301 300 299 298 297 296 296 297 297 297 296 297
317 317 315 316 315 315 316 317 317 316 315 314 314 314 314 314 314 314 314 314 314 314 314 315 315 315 315 315 315 316 315 315 315 314 313 312 312 311 311 311 311 310 310 309 309 310 311 312 314 315 314 314 316 317 319 320 321 321 321 321 321 321 321 321 321 321 320 319 319 318 317 317 317 317 317 317 316 314 311 308 306 304 302 301 301 300 299 298 297 297 296 296 297 297 297 297 297
317 316 315 315 315 315 316 316 317 315 314 314 314 314 313 314 314 314 314 314 314 315 315 315 315 316 316 316 316 316 315 315 314 313 312 311 310 310 310 310 310 309 309 308 309 309 310 310 311 313 313 313 314 316 318 319 319 319 320 320 320 320 319 319 319 319 319 318 317 317 316 315 316 316 316 316 315 313 310 307 305 304 302 301 300 299 298 298 297 296 296 296 296 296 297 297 297
316 315 315 315 315 315 316 316 317 314 313 313 314 313 313 314 314 314 315 315 316 315 315 315 316 316 317 316 315 315 314 313 312 311 310 310 309 308 308 308 308 307 307 307 307 308 308 309 310 311 312 312 312 313 315 317 317 318 318 318 318 318 318 318 318 317 317 316 315 315 314 314 314 314 315 315 314 313 310 307 305 303 302 300 299 299 298 298 297 296 297 296 296 296 296 297 297
315 315 315 315 316 316 316 316 315 313 312 313 314 313 313 314 314 315 316 316 316 316 316 316 317 316 315 314 314 313 313 312 311 310 309 309 307 306 306 306 306 305 306 306 306 306 307 308 309 310 311 311 310 311 312 314 315 316 316 317 317 317 317 316 316 315 315 314 313 313 312 312 313 313 313 313 313 312 311 308 305 304 302 300 299 298 298 297 296 296 296 296 295 295 296 297 296
315 315 315 315 316 316 316 316 315 313 313 314 314 313 314 316 316 316 316 316 316 317 317 317 316 315 314 313 312 312 311 310 310 308 307 307 306 305 304 304 304 304 305 305 305 305 306 306 307 308 309 309 309 309 310 311 313 314 314 314 314 314 314 312 312 312 312 311 311 311 311 311 311 311 311 311 311 311 310 308 306 304 303 301 299 298 297 297 296 296 296 296 296 295 296 296 296
316 316 316 316 316 316 316 316 315 314 315 314 314 315 317 318 319 318 317 317 317 316 315 315 314 314 313 312 311 310 310 309 308 307 306 306 305 304 303 303 303 303 303 304 304 304 305 305 306 307 308 308 308 308 308 309 310 312 312 311 311 311 311 310 309 310 310 309 309 309 309 309 310 310 310 309 310 310 309 308 306 304 303 301 299 297 297 297 296 296 296 296 296 296 296 296 295
316 317 317 317 317 316 316 316 315 316 317 314 314 318 320 318 318 320 318 318 318 315 313 312 312 312 311 310 309 309 308 307 306 305 304 304 304 303 302 302 302 302 302 302 303 303 304 304 304 305 306 306 306 306 307 307 308 309 309 310 310 310 310 309 309 309 309 308 308 308 308 307 308 308 308 308 308 308 308 307 305 304 302 301 299 297 297 297 297 296 295 296 296 296 296 296 295
317 318 317 317 316 316 316 316 316 316 317 315 314 318 320 318 319 320 318 319 318 313 311 311 311 310 309 309 308 307 307 306 305 304 303 303 303 302 302 301 301 301 301 301 302 302 302 302 303 303 304 304 304 305 306 306 307 307 308 308 308 309 309 309 309 308 308 308 307 307 307 306 305 306 306 306 306 306 307 306 305 304 302 301 299 297 297 297 297 296 296 295 295 296 297 296 296
318 317 316 316 315 316 317 316 315 315 316 316 315 316 319 319 319 319 318 319 317 313 312 311 310 309 308 307 307 306 305 304 304 303 302 302 302 301 301 300 300 300 300 300 300 300 301 300 300 301 302 302 302 303 304 304 305 306 306 307 307 307 307 307 307 307 306 305 305 305 305 304 304 304 304 305 305 304 305 305 304 303 302 300 299 297 297 297 297 296 296 295 295 295 296 297 296
317 314 313 314 314 314 315 314 315 315 315 317 317 316 320 320 318 318 318 317 316 313 312 311 309 309 308 307 306 305 304 303 302 302 301 301 301 300 300 299 299 299 299 300 300 300 300 299 299 299 300 300 301 301 303 303 304 304 305 305 306 306 306 306 306 305 305 304 304 303 303 303 303 302 302 303 303 303 303 303 303 302 301 300 299 297 297 297 297 297 296 295 295 295 296 296 297
314 313 313 313 314 314 314 314 314 314 316 319 319 317 320 320 317 317 317 316 316 313 311 310 309 308 307 306 305 304 303 302 301 301 300 300 300 299 299 299 298 298 299 299 299 299 299 299 298 298 298 299 299 300 301 302 303 303 303 304 304 305 305 305 305 305 304 304 303 303 302 302 302 301 301 301 302 302 302 302 302 301 301 300 299 298 297 297 297 297 296 295 295 295 295 296 296
312 313 313 314 315 314 313 313 313 316 319 320 318 318 319 320 317 316 316 314 315 313 311 310 309 307 306 305 304 303 302 301 301 300 300 300 299 299 299 298 298 298 298 298 298 298 298 298 298 298 298 297 298 298 299 300 301 301 302 302 303 303 303 304 304 304 304 304 303 303 302 302 301 301 301 300 300 300 300 300 300 300 300 300 299 298 297 296 296 296 296 295 295 295 295 296 296
312 313 312 315 317 315 314 314 314 318 322 319 317 318 319 319 316 315 315 314 313 313 311 310 308 306 305 303 302 302 301 300 300 299 299 299 299 298 298 298 297 297 297 297 297 297 297 297 297 297 297 297 297 297 297 298 298 299 299 300 301 301 302 302 302 303 303 303 303 303 302 302 301 301 300 300 299 299 299 299 300 299 299 299 299 298 297 296 296 296 295 295 295 295 295 295 296
311 312 312 316 319 319 319 319 318 320 321 316 315 317 318 318 316 315 316 314 312 312 311 310 308 306 304 303 302 301 300 300 299 299 298 298 298 298 297 297 297 296 296 296 296 296 296 296 296 296 296 296 297 296 296 296 296 297 297 297 298 299 299 300 301 301 302 302 302 302 302 302 301 301 300 300 299 299 299 299 299 299 298 298 298 298 297 296 296 296 295 295 295 295 294 295 295
311 313 315 317 320 322 323 322 320 321 319 314 313 316 317 316 316 317 316 312 310 310 309 308 306 304 303 302 301 300 299 299 299 298 298 297 298 298 297 297 296 296 296 296 295 295 295 295 295 295 296 296 296 296 296 296 296 296 295 296 296 297 297 298 298 299 300 300 300 301 301 301 301 301 301 300 299 299 299 298 298 298 298 298 298 297 297 297 296 296 295 295 295 295 294 294 295
314 314 316 318 319 321 322 321 321 321 319 315 314 316 317 316 315 315 313 309 308 308 306 305 304 303 302 301 300 299 299 298 298 298 297 297 297 297 297 296 296 296 295 295 295 295 295 295 294 294 295 295 295 295 295 295 295 295 295 295 295 295 296 296 297 297 297 298 298 299 299 299 300 300 300 300 300 299 298 298 298 298 297 297 297 297 297 296 296 296 295 295 295 295 294 294 294
316 314 315 317 318 319 320 321 321 321 320 318 316 317 316 315 314 312 310 308 307 306 305 304 303 302 301 300 299 298 298 297 297 297 296 296 297 296 296 296 295 295 294 294 294 294 294 294 294 294 294 294 294 294 294 294 294 294 294 294 294 294 294 295 295 295 295 296 296 297 297 297 298 298 298 299 299 299 298 298 297 297 297 297 297 297 296 296 296 296 295 295 295 295 294 294 294
314 313 316 315 315 317 319 320 319 319 319 318 317 316 315 315 315 312 309 308 307 305 305 304 302 302 301 300 298 297 297 296 296 295 295 295 296 296 295 295 295 294 294 294 293 293 293 293 293 293 293 293 293 293 293 292 292 292 292 292 293 293 294 294 294 294 294 294 295 295 295 296 296 296 297 297 298 298 298 297 297 297 297 296 296 296 296 296 295 295 295 295 294 294 294 294 294
314 314 315 314 314 315 315 317 318 318 319 318 316 316 314 315 316 313 310 309 307 305 304 303 302 301 300 299 298 297 296 296 295 294 294 294 294 294 294 294 294 294 294 293 293 293 292 292 292 292 292 292 292 292 292 292 292 292 291 291 291 291 292 292 293 293 293 294 294 294 294 294 295 295 295 296 296 297 297 297 296 296 296 296 296 296 296 296 295 295 295 294 294 294 294 294 294
312 312 312 313 316 316 315 317 318 318 319 318 317 316 316 315 316 314 312 310 307 305 304 303 302 301 300 298 297 296 296 295 294 294 293 293 293 293 293 293 293 293 293 293 292 292 292 291 291 291 291 291 291 292 292 292 292 292 292 291 290 290 291 291 291 292 292 293 293 293 293 293 293 293 294 294 295 295 295 296 296 296 295 295 295 295 295 295 295 295 294 294 294 294 293 293 293
309 309 311 312 314 315 315 317 317 318 319 319 319 317 316 316 315 314 313 310 307 306 305 303 301 300 299 298 297 296 295 294 294 293 293 293 293 292 292 292 293 292 292 292 291 291 290 290 290 290 290 290 290 291 291 291 291 291 291 291 290 290 290 290 291 291 291 291 291 292 292 292 292 293 293 293 293 294 294 295 295 295 295 295 295 295 295 295 294 294 294 294 294 293 293 293 293
312 311 312 312 313 313 315 315 315 317 318 319 320 319 317 315 314 312 311 309 308 307 305 303 301 299 298 297 297 296 295 294 294 293 293 293 292 292 292 292 293 293 292 291 291 291 291 290 290 289 289 289 289 289 289 289 290 290 290 290 289 289 289 289 290 290 290 290 290 291 291 291 292 292 292 292 292 292 293 293 294 294 294 294 294 294 294 294 294 294 294 293 293 293 293 292 292
315 314 313 314 314 314 316 316 316 316 316 317 318 318 317 313 311 310 309 308 307 306 304 302 300 298 297 296 295 295 294 294 293 293 292 292 292 292 292 292 293 293 293 292 292 291 291 291 290 289 289 289 289 289 289 289 289 289 289 289 288 288 288 288 288 289 289 289 289 290 290 290 290 291 291 291 292 292 292 292 293 293 294 294 294 294 294 294 294 293 293 293 293 293 292 292 292
Wind_Speed
4 4 4 4 5 7 6 4 4 2 3 5 2 1 3 5 3 2 3 4 2 4 6 5 4 4 6 6 7 9 9 8 7 6 4 3 1 1 8 11 11 11 16 18 14 22 25 25 23 23 22 20 20 18 18 17 16 16 15 14 14 13 12 12 12 12 11 11 10 10 10 10 10 9 9 8 7 7 6 6 7 7 7 6 5 6 6 5 5 4 3 2 3 2 2 1 1
3 4 3 4 5 5 3 1 4 2 3 4 1 2 4 3 1 2 6 7 5 5 5 4 5 5 7 7 8 9 7 5 5 7 2 3 1 1 7 12 11 10 15 17 15 21 25 24 24 23 22 21 20 19 19 18 17 16 15 14 14 13 12 12 11 11 11 11 11 10 10 10 10 10 10 9 7 6 5 5 6 6 6 6 6 6 6 4 4 3 2 2 3 3 2 2 1
2 3 3 4 4 4 3 2 4 3 4 3 3 4 3 1 2 5 6 6 5 5 4 4 5 4 7 7 6 7 4 2 3 6 1 1 2 3 5 10 13 11 13 16 14 20 24 23 24 24 22 21 20 20 19 18 18 16 16 15 14 13 12 12 11 11 11 11 11 11 11 11 11 10 10 8 7 5 5 5 6 6 6 7 7 6 5 4 3 3 2 2 2 3 3 3 4
1 2 3 4 4 4 3 3 3 4 4 3 2 5 3 2 4 6 6 5 4 4 3 3 3 2 5 6 4 5 4 3 2 4 2 1 2 3 4 10 14 12 13 15 14 17 21 22 24 25 23 21 20 20 19 18 18 17 16 15 14 14 13 12 12 12 12 12 12 12 12 11 11 10 9 8 6 5 5 5 6 7 7 7 6 4 4 3 3 3 3 2 2 4 5 5 7
1 2 3 5 3 1 2 3 3 4 3 3 2 3 4 4 5 6 6 5 3 3 3 3 2 2 4 6 4 3 3 4 1 2 3 1 1 2 5 10 14 14 13 15 15 15 18 21 23 25 25 22 21 20 20 20 18 18 16 15 15 15 14 13 13 13 13 13 13 13 12 12 11 10 8 8 7 7 7 5 5 5 5 5 4 4 3 3 2 3 3 2 4 6 6 7 9
2 2 2 4 2 1 3 4 3 4 2 3 4 4 5 5 6 6 7 6 1 1 3 4 4 2 5 4 4 4 4 4 2 2 2 1 3 3 5 9 14 14 14 16 16 15 16 21 22 24 26 23 21 21 21 20 19 18 17 16 15 15 15 15 14 13 13 13 13 13 13 12 10 9 9 8 7 7 9 8 6 4 5 5 4 4 4 3 3 3 3 3 5 8 7 9 9
3 2 3 3 2 1 4 4 3 4 2 3 4 5 6 7 7 7 7 5 1 2 2 3 4 6 5 1 4 5 4 4 2 3 3 3 4 3 6 8 12 13 14 17 17 15 16 21 22 23 26 24 21 21 21 21 19 19 18 17 16 16 16 16 15 14 14 14 13 13 13 11 10 10 9 8 7 7 9 9 8 6 7 7 6 5 4 4 4 4 4 3 6 9 8 8 8
3 2 1 3 3 2 4 4 4 4 1 2 4 6 7 7 7 7 7 5 2 1 3 4 3 5 2 1 3 3 5 5 5 7 6 7 6 4 6 8 10 12 14 16 16 16 17 22 23 24 26 25 22 21 22 22 20 19 18 18 17 16 16 16 15 15 15 14 14 13 12 12 11 10 9 9 8 8 9 10 9 8 8 7 7 6 6 6 5 5 4 5 8 8 7 7 5
3 3 1 3 3 2 4 4 3 3 2 3 4 5 6 6 5 4 7 5 3 3 2 2 2 5 4 2 6 3 6 4 5 8 8 9 7 6 6 8 9 10 13 14 15 16 17 22 24 24 27 26 24 23 22 22 21 20 19 18 17 17 16 16 16 16 16 15 14 13 12 11 10 10 10 9 8 8 9 9 10 9 8 7 7 8 7 7 6 5 5 6 8 7 5 4 1
3 2 2 3 3 3 4 3 1 0 1 3 5 6 5 4 3 3 6 5 2 3 0 1 4 8 8 8 8 1 5 4 3 5 7 9 7 7 6 9 9 9 13 13 14 14 16 22 23 24 27 27 25 23 23 22 22 21 19 18 18 17 18 18 17 17 16 16 15 13 13 11 11 11 10 9 10 10 10 9 10 9 9 8 8 8 8 7 7 6 6 8 8 5 3 1 2
3 2 2 3 3 4 3 3 3 2 2 3 4 2 2 1 2 3 4 5 3 4 1 3 4 6 9 9 6 2 5 3 1 1 5 7 7 7 5 9 11 10 12 13 13 13 14 20 22 23 28 27 25 24 23 23 22 21 20 19 18 19 19 19 18 17 16 15 14 13 13 11 12 13 10 12 15 14 12 10 10 10 9 9 9 9 8 8 8 8 8 8 6 3 2 3 3
3 2 2 4 3 4 4 5 5 6 6 4 1 4 2 1 2 3 3 6 5 7 4 6 1 4 7 8 4 4 8 4 4 4 5 5 5 7 6 8 12 11 12 14 14 13 13 15 19 24 27 26 25 25 24 23 23 22 21 20 20 20 20 19 18 17 16 16 15 15 14 13 14 14 12 15 16 14 13 11 11 11 10 10 9 9 9 9 9 9 9 7 5 3 3 3 3
3 1 3 4 3 4 5 5 5 6 6 1 3 5 2 2 4 4 4 8 8 10 3 4 2 5 8 8 6 3 7 7 6 6 6 4 5 8 8 7 11 12 12 15 16 15 14 14 16 22 27 26 26 25 24 24 24 24 23 22 21 22 21 20 19 19 18 17 17 18 17 15 15 15 15 15 13 12 12 12 12 12 11 11 10 10 9 10 9 9 8 6 5 5 4 3 3
3 2 4 4 2 5 6 5 4 5 3 4 4 4 3 4 3 3 5 9 9 6 3 1 3 5 8 7 6 2 5 6 5 7 6 7 7 8 9 8 10 12 13 15 16 15 16 16 17 20 24 25 25 25 25 25 25 25 24 24 23 23 23 22 21 20 19 19 19 19 17 16 16 16 17 17 14 12 13 13 13 12 11 11 11 11 10 10 10 10 8 7 6 6 4 4 3
3 2 3 5 4 5 4 4 4 4 4 2 4 3 3 5 4 3 6 8 8 3 2 3 3 3 5 5 5 3 7 5 4 5 6 9 9 8 11 10 10 13 14 15 16 16 17 18 18 20 22 23 23 23 23 25 26 26 26 26 26 25 25 24 23 22 21 21 21 20 19 18 18 17 18 20 17 14 15 14 13 12 11 11 11 11 11 11 12 10 8 8 6 5 4 3 3
2 3 3 5 5 5 3 3 3 3 4 2 5 3 4 5 5 5 3 4 9 4 4 6 7 7 8 10 8 4 7 5 3 3 5 8 8 8 11 12 10 12 14 15 17 18 19 19 19 20 22 23 24 24 22 23 26 29 29 28 28 27 27 26 25 23 23 23 23 22 22 21 20 19 19 20 19 17 16 15 14 13 12 12 12 12 11 11 12 10 9 7 6 5 4 3 2
2 3 4 5 5 6 3 2 3 3 5 3 4 4 6 6 4 5 0 3 12 11 10 9 9 11 12 15 10 2 5 6 3 4 6 7 8 8 9 11 11 12 15 17 18 19 19 21 21 21 22 23 25 25 24 23 26 29 30 31 30 29 28 28 26 24 23 23 24 24 23 23 21 21 20 20 21 20 18 16 15 14 13 13 13 13 12 12 12 10 9 8 6 5 3 3 2
3 4 5 5 5 5 2 4 5 5 7 7 4 3 6 9 5 3 2 7 12 14 14 13 13 14 17 19 14 8 8 8 6 7 8 9 8 9 10 11 13 13 15 17 19 20 20 22 24 23 22 24 25 25 25 24 25 27 31 32 32 32 30 29 28 27 25 24 25 26 25 23 21 19 19 20 20 20 19 17 17 15 14 14 14 13 12 12 13 11 10 9 7 5 4 3 2
5 5 6 6 7 6 3 6 9 7 8 10 9 8 8 10 10 4 5 11 10 13 14 12 14 15 17 20 18 15 12 9 10 10 11 12 11 12 11 12 14 15 16 17 20 22 23 23 25 26 25 25 26 26 25 24 24 25 28 30 31 32 31 30 29 28 26 23 24 27 24 20 19 18 18 20 19 18 19 19 18 17 16 16 16 13 12 13 13 13 12 10 8 6 6 4 3
6 6 6 7 8 9 6 7 9 10 10 11 11 10 10 11 10 7 8 12 12 13 13 13 15 13 12 13 13 14 14 12 12 13 14 15 15 15 14 14 14 17 18 19 20 22 24 24 25 27 27 26 26 26 26 24 24 24 24 27 28 27 28 29 29 27 25 24 24 25 23 20 19 17 18 21 20 18 18 19 19 18 18 18 18 14 13 15 15 15 14 11 9 9 8 6 4
4 6 8 9 7 7 8 9 10 9 8 9 11 11 13 11 8 8 9 10 10 12 12 12 15 14 12 11 10 11 11 12 12 13 14 16 17 17 16 16 15 16 18 18 17 19 24 26 25 26 27 26 26 26 26 26 25 24 23 26 26 24 24 26 26 27 25 25 25 22 21 21 20 18 18 22 21 18 18 20 20 20 19 19 20 16 14 17 17 17 15 12 12 10 9 7 6
4 8 11 12 10 9 10 11 8 5 6 8 11 12 12 9 8 10 12 12 10 10 12 13 17 17 16 14 12 11 10 11 13 14 15 16 17 18 17 17 16 14 14 16 17 19 24 27 25 24 25 27 27 26 26 26 25 25 25 25 24 23 23 24 24 26 26 26 25 23 22 22 21 19 18 21 21 18 17 19 21 21 19 19 21 17 16 18 19 19 16 15 14 12 11 9 8
6 10 12 13 12 12 11 10 3 1 8 11 11 12 11 11 13 13 13 16 15 15 16 17 19 19 18 16 12 11 11 13 14 15 17 17 18 19 18 17 16 14 13 15 16 17 20 25 25 24 24 26 27 27 25 25 25 25 26 26 24 23 23 24 24 24 25 25 25 25 24 24 24 21 18 20 21 18 17 18 20 20 19 19 21 18 16 18 21 20 18 17 16 14 13 11 9
8 11 12 12 12 11 12 11 5 5 11 13 11 12 14 16 15 14 15 17 17 18 17 18 19 19 18 15 13 12 13 14 16 18 18 18 19 19 17 16 16 15 14 14 15 16 18 21 24 25 25 26 26 27 25 24 25 25 26 25 25 25 24 24 24 24 24 24 25 26 25 25 25 22 19 19 21 19 18 18 19 19 19 19 20 19 17 20 22 20 19 19 17 15 13 11 10
11 13 13 11 10 10 11 12 10 10 11 11 12 14 17 18 15 17 20 20 19 19 18 18 17 17 15 14 13 13 13 14 16 18 18 17 18 17 15 15 15 15 17 16 16 18 19 21 24 27 27 27 25 26 27 25 24 24 26 25 26 27 26 24 24 24 24 24 25 28 28 27 24 21 20 20 20 19 19 19 19 19 18 18 19 18 20 23 23 21 21 20 18 15 13 12 11
7 9 11 10 10 11 12 13 14 12 10 9 11 16 18 16 13 16 19 17 15 14 15 15 14 15 14 13 13 13 14 14 15 16 17 15 15 15 15 15 15 17 19 19 18 20 21 23 26 29 30 28 25 25 27 27 25 24 25 25 26 28 28 24 24 25 25 25 25 28 31 29 24 22 21 20 20 20 19 19 19 18 18 18 19 19 21 25 23 21 21 20 18 16 14 14 13
4 8 11 12 15 15 14 16 16 14 12 12 13 15 18 14 8 10 13 11 7 7 10 11 11 14 15 14 13 13 14 14 15 16 15 13 12 13 15 15 17 19 20 20 21 22 23 25 27 30 31 30 27 26 28 28 26 25 25 25 26 27 28 25 24 24 25 25 26 29 33 32 26 22 22 21 21 21 20 20 20 19 18 19 22 23 23 24 22 22 21 20 19 17 16 15 14
8 9 12 15 17 16 16 17 17 13 10 8 11 14 17 14 10 13 16 13 11 11 12 11 12 14 15 15 14 12 12 14 15 14 13 12 12 13 14 15 17 21 22 24 25 24 23 25 26 28 29 30 30 29 29 29 27 25 24 24 25 25 27 26 25 24 24 26 27 30 34 36 31 24 23 23 22 21 21 21 21 20 21 23 25 26 25 24 22 21 21 20 19 17 17 16 15
8 8 12 16 15 15 18 17 12 10 5 3 5 10 12 12 13 17 18 14 13 12 13 13 14 14 14 14 13 11 12 14 14 13 12 13 13 14 16 16 17 19 21 24 26 24 22 22 24 25 26 29 33 32 29 29 27 25 24 24 24 24 26 26 25 25 24 25 27 33 36 38 36 27 23 26 26 23 22 24 24 24 25 27 27 27 26 25 23 22 22 21 19 18 18 18 17
8 9 9 11 12 12 12 9 4 5 5 7 4 7 7 11 14 14 10 7 8 10 14 16 15 15 14 13 12 13 13 13 14 14 14 14 13 14 16 18 17 18 18 17 19 21 20 21 23 24 25 28 32 31 27 26 26 25 25 24 23 24 25 26 26 25 24 25 28 34 37 37 38 31 25 28 29 25 25 27 29 29 28 28 28 29 28 27 25 24 24 22 21 19 18 19 17
8 10 6 6 8 6 4 4 6 3 4 9 7 7 7 11 14 12 7 4 6 11 16 18 17 15 14 12 12 13 13 13 14 15 15 15 14 13 15 17 16 17 17 14 14 17 18 21 22 23 25 27 29 30 28 26 25 24 24 23 23 24 25 25 25 25 24 25 29 34 37 37 38 36 30 29 31 29 28 29 30 30 29 28 29 30 29 28 27 26 25 23 21 19 17 18 17
8 8 6 6 7 7 7 4 8 7 3 9 9 6 7 10 11 12 9 9 11 13 17 19 18 17 16 13 12 12 12 12 13 12 12 12 12 12 14 15 15 14 14 14 14 14 15 17 20 22 24 26 26 26 27 26 22 21 21 21 22 22 23 23 23 23 23 24 29 32 35 38 39 39 36 33 33 32 30 29 30 30 30 31 31 31 30 28 27 26 25 23 22 19 17 18 15
7 7 7 8 8 9 8 4 6 6 2 8 11 7 9 9 11 15 15 16 16 16 19 21 19 18 16 13 11 11 11 11 10 9 10 10 11 12 14 14 13 12 12 12 12 12 12 14 17 20 20 21 21 21 22 22 19 18 18 18 19 19 20 21 20 21 21 22 26 29 32 37 39 40 38 36 34 33 31 30 30 31 32 33 31 31 30 28 26 26 25 24 22 20 18 18 15
6 7 8 9 10 10 8 8 5 3 5 8 11 10 12 12 12 15 17 17 16 17 19 20 17 16 15 12 11 10 9 8 7 7 10 12 13 14 14 13 11 11 9 9 9 9 10 9 12 15 16 15 16 17 18 18 17 16 16 15 16 17 18 19 19 19 20 21 23 26 29 34 38 40 40 38 36 33 31 30 29 31 33 33 31 31 30 27 26 27 27 25 23 21 20 20 16
10 10 8 9 11 11 12 11 6 4 9 11 11 12 15 15 14 14 16 17 17 18 19 16 15 15 15 12 9 8 7 6 6 9 13 14 14 15 14 13 12 10 8 6 5 5 6 6 6 9 12 12 13 14 13 14 15 14 15 14 14 16 16 17 18 18 18 19 20 23 28 32 35 38 40 39 38 34 32 31 30 31 33 33 31 31 30 27 26 27 28 26 23 20 19 19 16
15 13 11 12 12 12 14 14 12 12 12 12 12 14 15 15 14 13 15 17 18 20 17 14 13 14 13 8 5 5 6 6 8 11 15 16 16 16 15 15 15 12 10 8 6 4 2 3 3 4 6 8 9 10 11 11 12 13 13 14 14 15 16 16 17 18 17 16 18 22 26 29 32 35 38 39 38 36 33 32 31 31 32 32 31 31 31 30 29 29 28 27 24 20 17 17 17
16 12 12 14 13 13 13 14 14 9 6 9 12 14 15 15 15 16 17 17 19 19 16 14 14 11 7 4 4 6 6 7 10 14 17 18 19 19 18 18 18 16 16 14 12 9 6 3 1 2 3 5 7 8 9 10 11 11 12 13 13 13 14 15 16 17 17 15 17 21 25 27 29 32 35 37 38 36 33 31 30 31 32 32 33 33 31 30 31 30 28 27 27 24 19 17 19
15 12 12 12 11 12 14 15 15 7 3 7 11 13 16 16 18 19 17 16 16 15 15 14 11 8 5 4 6 7 8 9 12 15 17 20 21 22 20 19 20 19 19 18 17 14 10 7 4 1 1 4 6 7 7 8 9 9 9 10 10 10 10 12 13 13 14 14 16 19 22 24 27 30 33 36 38 37 34 31 30 31 33 33 32 32 30 29 30 30 28 28 27 27 23 21 22
12 10 10 10 9 12 13 11 6 2 1 7 12 13 13 16 20 20 16 12 12 13 15 11 7 6 5 5 7 9 10 11 13 14 16 20 22 23 22 21 21 20 19 20 19 17 15 13 9 6 3 0 2 5 6 6 6 7 7 6 6 6 6 7 8 8 9 10 13 17 19 21 24 28 31 34 36 37 38 35 32 32 35 34 32 32 31 31 32 31 31 30 27 25 21 22 26
9 8 8 9 10 10 9 5 1 2 6 9 12 11 11 14 15 13 9 7 10 12 8 5 7 7 7 10 10 11 12 12 13 14 15 18 21 23 24 22 21 20 20 20 20 19 17 16 14 10 6 4 3 2 3 4 4 4 5 6 6 6 6 5 5 7 8 10 12 16 20 22 24 26 29 31 34 36 37 36 34 34 36 36 35 35 34 35 35 34 33 31 29 25 19 21 27
9 9 9 11 11 12 11 9 8 10 9 6 8 9 8 5 5 5 2 5 11 5 8 12 11 10 11 13 13 13 13 13 14 15 15 16 19 21 22 22 21 21 21 21 21 19 18 18 17 14 11 9 7 4 3 3 3 2 3 6 7 7 8 7 6 7 9 12 14 15 18 21 23 25 27 29 33 36 36 36 34 34 36 37 38 37 36 37 37 37 37 33 32 31 25 23 26
8 9 10 12 12 13 13 11 9 8 5 1 4 8 5 1 6 7 3 9 7 7 14 13 12 12 12 12 12 12 12 13 14 14 14 14 17 19 21 23 24 24 24 22 20 19 20 21 19 17 14 13 12 9 5 3 2 3 3 4 5 5 7 7 7 8 8 10 12 12 14 17 20 23 25 27 30 33 36 36 34 34 36 37 38 37 35 35 37 39 39 36 36 35 29 25 26
7 3 3 7 9 10 10 8 6 5 6 1 2 5 6 5 8 5 5 12 2 13 14 12 12 11 11 11 10 11 11 12 13 13 14 14 16 19 21 24 25 24 23 20 17 19 22 24 22 20 17 16 15 12 9 6 4 4 4 4 5 5 6 6 5 6 6 7 7 8 10 13 16 20 22 24 27 30 34 35 34 35 36 36 37 36 33 34 38 39 39 39 38 36 31 27 29
4 3 4 4 5 7 6 6 5 5 8 7 4 6 7 7 4 4 8 11 3 13 12 12 12 10 11 11 11 11 11 11 11 12 13 14 16 19 20 22 22 20 18 17 18 20 25 27 25 22 19 18 17 15 12 9 8 6 5 5 6 6 7 7 7 5 5 5 5 6 8 9 13 17 19 21 24 27 30 33 34 36 36 36 35 35 34 33 35 38 38 38 37 37 35 31 30
1 5 4 4 4 5 4 5 7 6 8 7 6 7 6 7 2 4 6 6 5 11 12 12 11 10 10 10 12 11 11 11 12 12 13 14 16 17 17 18 19 19 18 18 19 22 26 28 27 25 21 20 20 18 15 12 10 8 7 7 7 7 7 8 8 7 6 5 5 6 7 8 10 14 17 19 21 23 27 30 32 34 35 35 34 35 35 32 33 36 39 39 37 37 37 34 30
1 3 1 1 2 4 4 6 7 6 8 8 6 9 5 7 3 3 2 3 5 9 11 11 11 10 9 10 11 10 9 10 11 11 12 13 14 15 15 18 20 20 18 18 20 24 28 28 28 28 25 22 22 21 18 16 13 11 9 9 9 9 9 9 8 8 7 7 6 6 7 8 9 11 14 17 20 22 25 27 30 32 34 34 33 35 36 34 33 35 38 40 40 37 35 36 33
1 1 3 4 6 5 5 6 4 5 8 8 6 12 8 5 2 2 1 1 2 7 10 10 11 10 9 9 9 9 8 8 10 10 11 12 14 15 16 17 18 17 18 20 24 27 29 28 27 28 27 25 24 23 21 18 16 14 12 11 10 9 9 9 9 10 10 9 9 8 8 8 9 10 12 14 18 21 23 25 27 30 31 31 31 34 36 35 35 36 37 39 40 38 35 35 34
2 2 4 5 5 4 4 4 3 6 7 4 1 8 10 7 2 1 3 6 5 4 8 11 12 10 9 9 8 8 8 9 10 9 10 11 12 13 14 14 15 17 21 24 26 26 26 26 26 26 27 27 26 25 24 22 19 17 15 14 12 11 10 10 10 10 11 11 11 10 10 9 9 10 11 13 16 19 21 22 24 25 27 27 30 33 35 34 34 35 36 38 39 39 38 35 34
3 3 3 5 5 4 5 5 4 7 4 2 4 2 7 9 6 8 6 7 8 5 8 11 12 11 10 9 8 7 7 9 9 8 8 8 9 11 13 13 15 18 22 24 24 24 23 24 24 24 25 25 24 25 24 23 22 21 18 16 14 12 11 10 10 10 11 11 12 12 12 11 11 11 11 13 15 17 19 20 22 24 25 26 28 31 32 33 33 33 35 37 38 40 41 39 37
6 4 4 4 5 7 8 7 7 8 3 3 3 1 4 8 7 10 8 7 11 9 11 12 12 12 11 10 8 7 8 9 8 8 8 7 9 11 12 12 15 19 21 21 21 21 20 21 21 22 22 24 25 24 24 23 22 22 20 18 16 13 12 11 11 11 11 11 12 13 13 13 13 13 13 13 14 16 18 20 21 23 25 26 27 28 30 32 32 32 34 36 37 39 41 42 41
7 5 4 5 6 7 7 6 7 9 6 2 2 1 4 5 2 3 6 12 12 11 13 13 11 11 10 9 8 7 8 8 7 8 8 9 9 10 10 12 15 18 20 19 19 19 19 18 19 19 20 22 23 24 24 22 21 22 22 21 19 15 13 12 10 11 11 12 12 13 14 14 14 15 15 16 15 15 17 20 20 22 24 24 25 26 28 30 31 32 33 34 36 37 38 41 42
4 2 3 5 4 5 6 6 7 8 8 6 5 4 5 6 2 9 12 13 12 11 12 11 10 9 8 7 8 7 7 7 6 7 7 8 8 9 10 13 15 17 18 19 19 18 18 17 17 18 19 20 21 21 22 22 22 23 24 24 23 20 18 15 12 11 11 11 11 12 13 14 15 16 17 18 17 15 16 19 21 22 23 24 24 25 26 28 30 32 33 34 35 36 37 38 40
1 2 3 2 2 3 5 7 7 7 9 7 6 8 8 8 5 9 13 11 11 10 10 10 9 8 8 7 7 6 6 6 6 5 5 6 8 11 13 15 16 16 16 16 16 16 15 15 16 17 19 20 21 21 21 22 23 24 25 26 24 23 22 20 18 16 15 13 12 12 12 14 14 15 17 18 19 17 16 19 21 21 22 22 23 24 25 27 29 30 32 34 34 34 35 38 38
1 2 1 2 1 1 3 7 7 8 11 7 7 12 11 9 6 5 11 10 9 8 8 9 8 7 7 7 6 5 5 5 5 5 5 7 10 13 14 15 15 15 14 13 13 12 12 13 15 15 17 18 18 18 19 20 22 22 23 25 25 24 22 22 23 21 19 17 16 14 14 15 15 15 17 17 18 18 18 19 20 20 21 22 23 24 25 27 27 29 31 33 34 33 33 36 38
1 1 2 1 3 4 5 6 5 8 11 8 9 14 11 9 9 4 6 11 10 8 7 7 6 6 6 6 6 5 5 4 4 5 6 7 10 12 13 13 13 13 13 12 11 12 12 13 14 13 13 13 13 13 13 14 15 16 17 19 21 22 22 23 23 22 21 21 20 18 17 16 15 16 16 16 17 18 18 19 19 20 21 22 23 24 25 26 27 28 30 30 31 32 33 34 36
1 2 2 2 2 4 5 4 2 6 9 8 8 10 8 7 6 4 3 11 11 8 7 5 5 5 4 4 4 4 4 3 4 4 5 5 7 8 8 9 9 9 10 10 10 12 14 15 15 15 14 15 14 13 13 12 11 11 12 14 16 19 20 21 21 21 21 21 20 20 20 18 17 16 16 16 16 17 17 18 18 19 20 21 21 22 23 25 26 28 29 29 30 31 33 33 33
3 4 5 4 3 2 3 3 3 5 8 7 8 9 7 4 3 5 8 9 8 8 8 6 5 5 4 4 3 3 3 3 3 3 3 3 3 4 4 4 4 4 5 6 7 8 10 12 13 14 15 16 17 17 17 16 16 15 15 15 17 19 20 21 20 19 19 19 19 18 18 19 18 17 17 17 17 17 17 17 18 19 19 20 21 22 23 23 25 26 27 28 29 30 32 33 33
6 5 6 7 5 3 5 7 6 5 6 6 8 10 7 1 4 4 7 7 6 7 8 6 5 5 4 3 3 3 3 3 3 2 2 1 2 2 3 3 3 3 3 5 6 6 7 9 11 13 14 16 18 19 20 19 19 20 19 19 19 20 21 22 21 19 19 19 18 18 18 20 19 19 18 18 17 17 17 17 17 18 19 20 20 21 22 23 24 25 26 27 28 29 30 32 33
Wind_Direction
347 332 323 317 303 294 276 276 282 217 245 270 277 317 75 57 358 313 1 23 9 47 19 330 308 289 284 310 324 320 298 283 307 315 346 96 12 156 177 203 179 151 169 166 171 189 189 188 183 178 178 181 184 183 186 185 185 186 187 187 186 182 181 183 181 182 182 183 183 186 189 189 190 188 189 185 182 185 186 188 185 180 177 171 164 154 144 142 139 136 151 159 149 165 190 177 117
348 322 299 285 277 278 289 313 287 254 255 271 98 37 52 74 281 7 10 4 1 8 348 314 297 273 272 290 290 289 285 265 288 309 0 131 263 138 193 203 182 158 168 167 170 187 188 190 186 180 181 183 186 185 187 187 187 189 188 188 190 186 185 187 184 185 184 185 186 187 190 190 188 187 186 178 175 187 189 186 182 173 170 166 160 152 140 139 126 124 165 169 173 206 218 222 254
356 316 278 263 249 252 281 242 271 302 289 293 70 64 44 330 359 10 355 357 358 342 318 297 278 263 258 253 269 289 299 300 301 305 307 194 285 143 198 207 186 162 168 172 169 182 185 190 190 183 183 185 187 187 188 189 189 190 189 190 189 186 186 189 187 186 187 188 190 190 192 191 186 185 181 170 167 179 185 178 174 170 173 165 153 147 135 134 127 142 184 153 182 242 251 257 280
40 307 266 266 243 231 262 250 277 304 291 309 44 77 62 335 355 343 346 358 340 312 289 283 260 185 249 266 314 298 282 316 10 324 307 50 16 141 201 208 189 167 169 177 171 179 182 193 194 187 185 186 189 190 190 191 192 193 192 193 191 188 187 191 189 187 191 192 196 195 192 190 184 180 169 164 162 166 176 174 174 168 168 162 149 146 138 138 139 169 181 144 229 268 276 282 297
14 271 256 264 269 269 284 277 272 271 294 342 328 55 41 344 341 332 339 333 319 304 272 256 265 146 241 279 306 291 327 338 44 318 308 29 301 206 216 208 188 173 175 178 176 177 184 198 199 192 188 187 191 193 194 194 195 196 196 196 196 194 190 191 190 191 196 197 199 196 192 189 180 174 167 167 166 167 171 165 175 171 163 164 164 164 152 156 159 177 185 178 256 274 282 291 301
250 222 216 245 278 343 275 265 258 259 328 8 302 337 358 339 345 335 323 318 340 298 266 246 281 286 261 246 222 259 339 335 328 294 275 295 265 228 229 206 182 177 179 178 179 177 187 202 203 199 192 189 194 196 198 198 199 199 200 199 201 201 195 193 194 196 198 200 201 196 191 185 176 172 175 176 175 182 183 173 175 195 201 191 186 186 178 185 192 205 214 213 265 277 283 290 296
255 214 187 219 208 227 259 267 286 288 38 39 304 320 326 326 340 326 316 321 116 164 224 244 296 295 275 216 221 234 256 268 287 267 221 259 272 233 223 196 178 180 180 178 180 180 193 203 203 204 197 193 194 198 201 200 201 202 204 203 204 205 201 197 198 199 200 201 199 195 189 181 178 177 181 184 190 203 210 203 189 201 217 215 208 204 208 221 222 224 224 219 268 280 283 287 294
258 259 184 245 221 199 261 275 283 289 32 14 301 300 305 322 333 317 314 313 296 214 209 235 262 278 273 133 262 175 183 231 234 248 245 253 262 248 220 187 183 184 180 180 181 182 199 205 203 204 200 197 195 199 204 203 203 204 207 206 207 207 204 201 200 201 200 200 198 196 189 182 186 189 196 201 214 237 249 236 215 210 210 215 215 215 225 224 221 219 207 226 269 279 281 287 300
230 254 202 265 254 225 261 263 265 278 291 309 295 286 290 304 316 309 306 297 294 307 246 254 229 261 316 306 281 162 158 197 229 253 255 254 254 254 228 189 190 187 182 181 183 185 201 208 205 206 201 200 200 202 206 206 206 206 209 207 208 206 204 203 202 204 201 199 197 195 190 189 195 201 212 224 238 251 254 235 219 219 211 213 215 216 219 210 213 210 205 241 270 275 276 282 303
212 242 258 270 268 261 259 255 269 302 290 302 291 292 299 299 307 294 296 306 316 307 58 22 240 247 293 303 290 236 145 167 229 264 254 255 248 241 230 197 191 185 186 182 186 187 202 211 208 207 201 200 203 205 209 208 207 207 208 207 207 205 204 204 202 204 204 201 196 194 194 199 210 213 221 235 234 229 233 225 215 218 214 216 214 209 206 203 207 201 219 254 268 263 254 206 124
220 194 271 276 259 270 294 317 329 329 318 299 283 303 338 10 305 271 273 297 298 295 214 168 248 256 278 286 283 140 137 169 161 184 237 250 240 224 220 205 197 186 189 187 189 188 200 214 212 206 200 201 204 207 211 208 207 206 207 207 206 204 204 206 204 204 203 200 195 197 201 204 216 220 227 234 232 226 225 220 213 215 211 209 208 203 203 203 200 206 234 253 253 233 181 141 125
249 182 229 270 278 295 324 320 315 314 305 279 203 109 85 110 248 275 296 302 303 299 258 179 284 333 288 283 295 135 141 146 133 168 224 237 233 215 203 205 205 193 192 192 194 194 196 211 212 204 200 203 205 207 211 209 207 207 208 207 205 204 205 205 203 202 201 198 198 203 206 209 219 223 232 240 238 230 218 212 213 215 211 207 205 205 204 200 202 222 240 239 223 188 161 147 131
264 287 258 271 301 301 307 303 303 305 295 212 112 113 132 214 240 289 317 304 296 297 292 153 330 320 283 290 296 217 146 129 158 207 224 202 197 211 205 201 209 198 198 201 198 198 194 199 203 201 203 205 205 207 210 210 208 208 208 206 204 204 203 201 199 202 202 201 207 212 214 219 225 226 234 240 232 219 211 212 214 211 210 209 205 205 202 196 207 226 231 218 198 179 171 158 133
283 305 283 281 291 280 282 284 292 298 297 91 100 133 172 238 251 298 298 294 295 308 25 64 313 298 277 274 275 252 123 125 177 211 204 194 191 206 206 195 209 202 203 207 201 199 195 195 196 201 207 207 207 209 211 212 210 208 207 205 204 204 203 202 204 208 208 208 214 218 219 223 230 227 228 229 219 212 213 213 212 211 209 207 203 202 196 193 211 223 219 205 191 181 175 159 135
295 298 276 274 272 266 247 261 297 295 290 84 116 141 209 247 225 244 265 282 302 1 27 276 230 254 285 276 289 68 117 147 165 197 192 202 202 205 207 202 210 205 205 207 202 201 198 198 196 200 207 208 209 210 213 215 212 209 209 208 206 206 206 206 210 214 216 218 219 220 221 223 228 227 225 225 221 215 217 215 211 209 206 203 200 197 190 196 215 219 211 201 189 185 176 159 134
280 284 259 264 270 268 218 237 280 264 296 54 130 147 266 265 196 230 263 277 292 294 252 244 201 231 274 278 293 84 140 173 156 196 182 195 203 206 215 212 214 212 211 208 205 205 201 200 198 199 204 207 209 210 214 217 216 213 211 212 212 212 212 212 214 218 220 222 222 221 221 223 226 228 227 226 225 222 219 217 212 206 200 198 197 193 188 200 216 215 208 202 195 195 184 167 138
251 258 250 259 259 263 240 234 267 282 327 354 156 173 277 293 186 206 309 248 271 275 259 250 223 236 254 260 271 175 200 226 203 199 173 185 197 200 213 213 215 215 214 211 209 206 204 203 201 201 202 205 208 210 214 218 221 221 217 215 216 217 217 217 217 219 222 222 223 221 221 222 222 225 227 226 229 226 219 215 212 203 196 196 194 193 188 199 215 213 208 208 206 204 190 181 155
221 233 246 255 260 274 272 265 288 295 299 300 280 261 280 289 266 197 221 243 254 268 265 258 244 240 246 254 261 246 235 231 205 205 197 198 202 204 208 206 210 212 212 212 211 208 205 205 203 203 203 204 206 209 213 216 221 226 223 219 218 219 219 220 219 219 222 221 223 222 220 219 216 218 223 224 225 223 218 213 210 201 194 196 195 189 187 202 215 212 212 213 208 206 199 195 178
222 249 258 254 263 283 293 281 291 288 286 295 296 292 278 278 284 273 259 269 270 272 271 266 258 248 245 250 250 241 232 219 206 216 225 220 218 220 216 206 206 211 211 209 212 210 205 204 204 204 205 204 204 207 210 214 217 223 224 221 220 221 220 221 219 220 220 219 222 223 218 213 210 209 213 215 212 212 214 212 209 200 193 198 195 186 192 207 215 212 214 212 204 206 206 204 199
229 242 257 259 266 275 270 277 283 282 290 291 290 293 283 275 280 272 260 274 276 270 272 273 274 269 259 257 255 249 237 224 218 224 233 234 232 232 230 220 209 210 213 212 213 210 206 205 205 206 206 205 204 206 208 211 213 217 219 217 216 217 218 220 219 218 218 215 219 221 214 209 207 203 209 211 206 201 206 210 206 197 193 201 199 190 198 209 212 213 212 207 205 206 204 204 206
234 220 247 269 281 280 267 282 284 281 293 289 289 290 282 282 280 263 256 271 270 263 267 271 280 290 292 293 294 284 255 232 231 231 232 238 239 237 239 237 228 221 217 215 211 208 209 209 206 207 207 205 205 205 207 209 211 213 214 212 210 210 210 213 215 214 215 214 214 216 212 208 203 200 207 207 202 194 197 204 200 194 192 200 202 195 201 208 211 214 210 204 208 207 204 204 205
252 232 248 266 274 276 275 289 294 291 296 282 280 279 281 291 279 258 253 259 260 267 282 287 288 293 297 296 295 291 268 245 246 245 239 239 240 240 243 243 242 235 219 213 212 212 215 215 210 207 207 207 207 206 207 210 211 211 212 210 206 206 206 207 209 209 211 211 210 211 211 208 202 199 201 199 197 191 191 196 193 191 189 195 201 194 198 208 210 212 208 204 208 207 205 205 205
253 254 253 263 268 272 280 292 299 276 280 273 275 282 288 286 276 271 260 255 258 268 278 284 285 288 291 291 286 275 258 254 258 255 249 245 243 242 243 243 245 239 224 216 216 216 218 217 212 208 207 207 208 208 208 210 211 211 212 209 204 204 205 204 205 205 207 207 206 207 208 208 203 197 196 195 195 192 191 191 188 189 188 193 198 191 192 205 209 210 207 205 207 206 206 206 207
243 266 268 271 273 273 280 286 276 253 267 270 279 286 282 275 277 283 274 266 267 271 271 272 278 283 285 283 275 265 256 256 259 258 254 250 248 246 244 243 244 241 234 227 221 219 218 216 213 211 212 210 209 208 208 210 211 212 212 208 205 206 204 203 204 203 204 204 204 206 205 206 202 195 194 195 194 194 193 190 188 190 189 192 194 190 191 200 207 208 205 206 207 207 207 207 209
241 256 269 274 273 271 276 279 270 260 261 267 274 273 268 269 277 281 278 276 273 269 267 268 272 276 279 277 271 266 261 258 258 259 256 250 249 249 245 240 239 237 235 232 223 219 217 216 214 213 215 214 210 208 208 210 210 210 210 207 206 207 206 204 204 202 202 202 204 206 205 205 201 195 195 195 194 194 192 190 189 190 191 190 188 189 198 204 206 206 206 207 208 207 207 208 211
252 259 279 287 282 278 277 275 267 259 257 258 262 265 268 274 281 274 270 273 273 263 261 267 273 277 279 276 269 265 263 259 255 257 257 252 247 245 241 235 232 230 232 232 226 221 218 216 215 217 219 216 209 207 208 209 210 210 209 207 207 208 207 204 204 202 201 201 203 207 208 205 199 196 197 196 195 194 191 190 190 189 189 189 188 192 204 208 205 205 207 207 207 206 206 208 210
317 292 294 288 282 280 274 270 265 259 260 255 251 264 275 281 279 267 267 269 269 259 260 269 275 279 281 279 273 266 262 255 250 252 255 252 242 237 234 228 230 234 233 229 225 223 223 219 216 219 222 218 211 208 212 212 211 211 210 207 207 207 205 203 203 203 202 202 203 206 207 206 203 199 198 195 194 194 192 192 192 190 189 193 197 200 207 209 206 208 209 207 206 203 205 208 208
304 300 298 283 278 276 268 264 261 257 258 248 244 261 275 274 251 249 263 267 266 271 276 278 279 280 282 281 277 271 265 258 255 252 249 249 244 239 236 228 230 238 239 238 234 227 223 220 218 219 218 216 214 211 214 216 211 212 211 207 207 206 203 203 203 203 203 202 203 206 209 212 209 202 199 199 197 195 195 195 195 195 197 203 206 207 209 207 204 207 208 206 203 201 205 206 205
287 291 289 283 281 275 268 262 255 249 236 154 222 260 267 260 243 242 253 263 267 273 283 289 288 285 283 281 278 273 269 267 266 263 257 257 253 247 247 246 242 241 243 247 246 234 221 216 217 218 212 212 218 215 214 216 212 211 210 208 209 207 204 204 204 204 203 202 205 213 218 218 213 205 201 207 206 199 199 203 203 203 206 210 211 210 211 207 203 206 207 204 201 201 204 206 202
277 277 270 283 288 280 271 254 216 227 195 142 199 265 274 271 270 269 275 286 284 282 290 294 291 287 283 281 279 274 273 272 272 274 275 274 268 257 255 261 259 252 249 246 243 234 225 221 219 217 211 212 220 218 212 213 211 209 210 210 209 208 205 206 207 206 205 206 212 221 223 220 215 210 204 210 210 205 206 210 211 211 211 213 213 213 213 209 206 208 209 204 202 202 205 207 201
270 275 256 264 275 281 278 203 169 203 172 159 210 262 277 279 286 293 313 321 292 288 290 290 288 287 284 280 278 277 278 277 278 283 286 285 283 274 265 268 270 264 258 249 239 233 230 229 225 222 220 218 219 219 214 213 212 210 211 211 208 207 207 208 208 208 208 209 216 224 224 220 218 214 210 212 214 212 212 214 215 213 212 213 214 214 213 211 209 211 210 205 203 202 205 207 199
259 270 262 250 256 279 286 214 192 229 197 172 207 265 278 277 292 300 307 300 289 287 285 284 285 285 285 284 282 282 282 284 290 295 295 293 294 292 282 279 279 275 268 258 247 237 231 230 230 231 230 225 221 220 218 216 215 212 212 212 210 208 208 210 210 210 210 212 218 225 226 222 219 217 215 216 217 216 215 217 217 215 215 215 216 216 214 211 209 210 210 205 203 200 201 202 194
248 246 259 267 272 286 293 283 248 246 183 187 212 259 284 281 295 298 297 293 288 285 281 281 283 284 284 287 288 287 289 296 302 303 307 314 315 312 307 301 296 293 287 273 260 247 239 232 231 234 233 227 222 221 220 217 215 214 215 215 214 210 209 211 211 212 212 213 219 223 226 224 222 219 218 219 220 219 218 219 219 218 219 218 217 216 213 209 207 207 207 204 202 199 199 199 187
265 249 255 265 273 288 294 301 303 180 183 227 231 249 272 280 288 289 289 289 285 278 275 276 282 286 285 288 290 292 299 307 319 329 338 343 339 335 331 328 323 316 311 295 275 259 253 242 230 231 232 225 219 219 218 215 214 215 217 217 216 213 214 214 212 212 213 215 217 222 226 227 224 221 220 221 221 222 221 220 220 220 221 218 216 216 211 206 206 208 205 202 201 200 200 197 185
288 285 282 282 283 294 292 292 303 258 256 273 271 268 279 289 292 289 288 289 285 275 272 277 285 285 284 288 295 304 317 329 352 2 2 3 360 358 354 351 349 341 337 330 312 283 267 259 233 227 230 223 217 217 215 211 212 214 215 216 215 215 217 216 213 213 214 215 215 221 226 228 226 222 221 222 222 222 222 221 221 222 222 218 215 215 211 205 205 207 206 202 198 198 200 195 184
287 292 291 290 289 287 286 285 289 296 295 290 287 286 291 297 297 292 285 282 279 276 280 287 283 279 283 297 319 334 345 356 16 24 23 23 17 13 12 11 10 8 8 10 9 5 325 283 241 223 228 219 212 212 209 208 210 213 215 215 216 217 217 217 216 217 217 215 216 222 226 227 227 224 222 223 223 223 223 223 222 222 223 218 215 215 211 207 207 206 205 202 196 191 192 190 186
285 289 282 280 282 279 281 282 285 306 316 288 290 294 297 301 296 286 280 277 276 280 284 280 274 280 296 337 2 1 13 30 41 42 38 32 25 22 23 20 18 20 21 21 23 22 19 6 280 223 214 207 206 207 206 208 211 215 217 219 221 221 218 218 219 220 219 217 218 224 228 228 227 225 224 224 224 223 222 223 223 223 223 219 218 217 213 210 210 208 205 204 199 191 185 184 187
279 280 278 277 277 277 279 283 290 319 322 283 295 297 299 302 292 283 279 278 279 280 276 269 278 306 342 11 12 26 45 53 51 45 37 32 27 24 24 23 21 21 20 21 24 23 23 23 20 13 175 193 204 208 210 214 219 222 227 231 233 232 227 223 224 224 222 220 222 226 229 230 229 228 227 226 225 224 221 222 223 224 224 220 219 218 215 212 211 208 204 203 201 197 192 187 186
274 271 274 274 275 280 283 282 291 8 292 290 304 303 297 288 281 282 283 283 279 268 266 277 316 351 17 31 39 57 61 55 47 38 30 27 25 24 23 22 20 17 17 20 24 27 28 27 25 22 26 173 219 216 216 222 228 230 236 246 247 241 240 233 230 231 224 219 223 229 232 232 232 232 230 228 226 224 223 222 223 225 225 221 218 216 214 213 212 209 206 204 199 196 196 193 192
258 259 267 270 273 279 286 285 317 315 281 289 301 298 286 274 265 270 276 269 265 265 279 352 30 40 58 61 61 63 60 51 43 34 25 21 22 24 22 18 17 15 16 19 22 27 30 27 24 23 25 20 356 279 242 238 233 221 217 232 237 231 238 238 230 230 228 228 230 234 237 238 236 235 233 231 228 227 225 224 223 225 226 223 220 217 215 214 213 210 208 206 198 191 190 197 199
254 252 254 263 271 277 286 297 311 304 283 282 303 294 289 285 258 259 251 243 260 285 50 57 62 66 73 71 63 60 56 50 43 34 25 21 21 23 22 19 19 18 17 17 19 26 32 30 27 28 33 29 17 4 318 276 246 220 203 228 236 233 240 242 237 234 231 236 237 237 240 240 238 237 235 233 232 230 228 226 225 226 227 225 222 220 217 217 215 212 210 206 202 198 193 195 201
266 253 250 261 275 282 289 299 311 306 280 91 10 313 306 336 273 279 282 267 270 73 73 69 69 65 66 65 58 55 54 51 48 39 30 25 23 22 23 23 23 21 16 13 14 25 36 36 32 34 38 34 23 16 358 333 294 275 256 255 260 255 254 250 246 244 235 238 239 235 238 239 238 238 236 235 235 233 231 229 227 228 228 227 224 221 219 218 216 214 211 207 207 207 199 193 197
267 263 272 274 280 284 290 300 306 296 286 335 50 303 288 282 279 261 248 269 274 85 78 79 78 71 67 61 54 49 50 53 49 43 36 30 25 24 24 24 25 23 14 8 12 26 39 41 37 36 39 35 27 21 16 4 349 326 306 294 292 290 287 286 284 271 254 249 245 234 232 234 239 239 235 235 237 235 233 231 229 229 229 229 227 222 220 220 219 217 214 211 210 209 203 197 198
270 19 7 325 301 295 299 302 286 278 294 287 218 227 267 294 296 192 239 266 123 93 84 87 82 77 78 71 64 54 47 52 49 42 36 30 29 27 26 25 26 24 15 12 20 29 39 41 39 38 38 36 29 26 26 18 10 0 345 330 314 308 306 304 310 309 285 266 255 240 232 231 238 241 238 236 237 237 235 232 231 231 230 229 229 225 222 222 222 220 217 214 212 210 207 205 202
311 44 4 348 332 308 304 292 281 282 295 285 204 193 259 293 281 190 247 261 140 106 98 102 90 80 82 76 72 64 54 55 54 50 39 31 32 29 29 29 27 26 21 20 27 34 41 41 39 39 37 34 30 27 28 25 21 14 3 355 342 331 326 316 312 311 304 287 266 249 241 238 238 242 242 240 237 237 238 236 232 232 231 229 229 228 226 226 225 222 219 216 214 213 212 210 208
35 70 356 332 265 268 271 266 278 282 273 273 219 185 241 297 273 204 225 218 162 122 108 108 99 88 78 72 71 67 63 59 55 56 49 40 35 29 28 30 28 27 23 23 32 39 42 40 38 38 36 33 30 28 28 28 25 22 16 9 358 346 337 329 323 316 311 300 284 269 253 248 243 239 240 240 241 242 241 239 237 235 234 232 230 229 228 227 226 225 223 221 218 216 215 215 214
43 294 284 277 249 241 251 248 264 274 263 280 234 189 211 294 284 188 155 103 106 118 126 120 105 96 80 71 66 58 57 58 54 51 47 43 39 32 29 29 28 27 26 29 34 38 40 38 37 37 36 34 32 30 29 28 26 25 20 12 3 356 346 337 329 322 318 311 300 290 274 261 251 242 238 238 243 246 243 240 239 239 237 234 232 233 230 227 226 226 226 224 221 219 218 218 218
224 261 287 294 269 231 235 224 206 259 266 315 18 182 210 247 240 203 123 106 87 110 138 131 115 106 89 75 65 55 48 53 54 45 37 35 33 33 30 29 28 29 31 32 33 36 38 37 36 37 37 36 34 33 32 30 27 24 18 14 8 2 355 346 337 329 323 317 308 300 292 280 266 252 242 237 240 247 245 241 239 238 236 233 232 235 233 230 229 229 227 225 222 221 221 220 220
209 237 252 279 284 257 255 248 234 260 263 86 78 152 229 248 253 254 230 119 99 97 116 123 119 109 95 79 66 60 53 52 52 47 41 32 27 29 26 24 26 30 33 32 31 33 34 34 35 38 39 38 38 38 37 36 33 27 20 15 10 4 359 353 343 336 331 324 316 311 304 295 287 275 257 245 245 250 249 245 242 240 237 236 235 236 236 234 231 230 229 227 225 224 223 222 222
190 211 218 236 275 274 271 275 267 268 268 109 102 92 258 266 264 247 230 103 90 91 92 98 104 100 94 87 76 64 58 54 49 46 44 37 31 28 23 23 27 32 34 32 32 32 32 32 33 36 38 39 42 43 42 41 39 35 32 25 17 10 4 360 352 344 338 330 324 317 312 306 299 294 284 270 260 255 254 254 250 247 245 242 239 239 238 236 234 232 231 230 228 228 226 224 225
198 207 222 237 259 267 270 278 270 274 292 291 199 195 263 283 356 90 108 94 90 90 87 86 88 89 90 88 80 66 59 55 49 46 41 36 32 26 25 29 33 34 33 32 31 29 30 31 30 33 35 37 40 42 42 42 40 39 38 35 30 23 14 6 359 352 343 334 328 320 314 309 304 300 296 290 278 261 259 263 257 251 250 246 242 241 240 238 235 233 233 233 232 232 230 229 228
207 173 225 247 262 259 265 275 275 287 298 281 238 236 272 278 137 107 98 94 92 86 87 89 85 87 88 81 73 64 59 53 48 46 40 35 31 27 29 33 36 36 33 31 29 27 28 26 25 30 32 33 34 36 38 40 41 40 39 39 37 33 30 23 12 1 351 339 330 322 315 310 308 305 300 296 289 271 263 271 268 260 257 251 245 243 241 239 237 236 236 235 235 234 233 232 231
126 144 223 264 322 290 276 274 273 275 273 268 258 258 269 269 222 126 100 92 96 94 90 90 87 87 85 77 71 67 62 55 48 45 38 30 29 29 30 31 33 32 30 29 25 23 25 23 24 27 28 30 31 32 35 38 40 40 38 38 37 34 33 32 28 20 10 358 341 330 324 319 315 311 303 296 292 280 271 275 274 267 261 254 249 245 243 242 240 239 238 236 236 236 234 234 233
154 191 272 346 317 277 262 266 268 261 259 257 253 260 268 273 259 133 119 116 111 106 99 96 96 91 85 82 79 72 68 62 53 46 33 26 27 27 27 27 27 26 24 22 16 16 22 25 27 29 28 28 27 28 31 33 35 35 34 35 34 32 31 32 33 29 22 15 3 349 338 329 320 312 304 296 292 286 281 279 275 270 264 258 255 249 245 245 242 240 240 239 238 237 237 237 235
227 248 341 318 264 257 241 249 259 256 261 261 247 255 261 258 265 255 167 146 127 118 113 106 101 96 92 91 85 74 68 57 45 39 29 26 26 22 21 19 18 20 18 16 16 19 26 28 28 30 29 25 23 24 26 27 29 29 28 29 30 30 29 29 30 28 25 22 15 7 357 342 327 316 308 302 297 292 288 285 279 274 269 263 258 254 250 247 244 242 242 242 240 239 239 241 238
101 267 267 230 261 275 260 265 281 255 260 268 256 253 254 256 286 324 126 135 135 137 128 114 104 99 94 89 83 67 59 47 32 31 26 25 23 15 11 5 3 11 13 13 18 24 28 30 30 31 30 27 25 25 25 25 24 23 22 22 23 25 25 25 25 24 22 19 16 13 8 358 347 334 323 314 307 300 294 290 284 279 274 268 262 257 254 250 246 245 244 242 241 240 239 240 241
213 225 231 217 216 263 281 272 244 247 259 264 264 260 254 273 357 59 100 114 126 133 130 126 114 104 92 83 75 56 50 40 32 35 27 19 10 354 343 335 335 348 0 5 11 19 24 26 28 29 27 25 25 24 24 23 21 21 20 19 20 21 21 21 21 20 18 14 11 9 5 3 358 351 342 331 321 311 303 297 290 283 278 272 266 261 258 252 249 249 248 245 243 241 238 238 241
268 254 247 254 257 260 272 261 233 227 251 256 262 264 256 303 18 60 91 89 94 110 119 122 115 110 99 79 66 54 42 31 25 19 5 347 330 317 311 310 314 323 340 356 6 13 16 18 20 20 20 18 17 16 16 16 17 17 17 17 18 19 19 19 19 16 12 8 6 2 359 0 360 357 353 345 335 324 313 305 297 289 283 277 272 267 262 257 252 251 250 248 245 243 241 240 239